RH
45 42 39 36 35 35 33 30 43 54 50 59 74 71 56 58 59 48 45 50 45 43 47 44 43 46 48 50 54 52 47 67 71 64 67 50 40 49 51 50 49 44 46 40 29 20 11 8 6 6 7 6 6 5 5 5 5 5 5 5 5 6 7 5 5 7 6 5 5 8 17 23 30 46 48 45 47 48 50 50 63 91 101 99 100 98 99 99 96 98 98 94 92 96 96 96 97
44 42 37 35 33 33 30 30 53 57 46 53 66 72 63 56 51 48 52 54 47 41 45 38 39 47 45 42 42 43 44 49 48 47 45 38 40 45 48 49 45 38 34 25 17 12 7 7 7 8 9 8 8 8 8 8 8 8 9 8 9 9 9 10 9 9 9 9 8 7 7 8 10 29 41 35 43 46 47 49 51 77 99 98 100 99 100 99 97 100 98 98 95 96 96 93 92
42 40 36 34 31 30 32 30 51 53 41 50 61 72 62 50 52 55 55 49 44 41 42 33 34 39 36 36 33 42 46 40 41 41 36 36 38 37 40 41 35 28 21 15 10 7 6 8 9 10 10 11 10 11 11 11 12 12 13 13 13 14 14 14 14 14 14 13 11 11 9 8 6 12 18 14 28 43 46 47 46 60 86 98 100 99 100 97 96 100 98 99 98 96 93 87 84
37 36 32 30 26 28 37 36 57 57 44 58 58 67 66 51 55 62 54 41 42 39 33 29 32 32 31 32 30 37 36 31 35 37 36 34 34 33 30 28 25 19 13 9 7 6 8 10 11 12 12 13 13 13 14 14 16 16 16 17 17 18 18 18 18 18 17 18 16 15 13 12 10 7 8 4 10 29 40 44 45 48 63 84 96 100 99 98 98 99 99 99 98 96 90 90 83
30 31 27 24 26 27 33 37 60 54 40 62 57 64 69 57 64 69 55 41 41 33 28 28 29 30 28 30 32 34 31 29 30 32 34 30 28 25 21 19 16 13 10 7 6 7 9 11 12 13 14 14 15 15 16 17 18 18 20 19 21 21 21 22 21 22 22 21 20 19 18 15 13 10 8 7 5 11 21 30 40 45 47 57 78 95 99 98 98 97 97 99 99 95 92 92 75
26 26 24 20 21 21 29 30 46 49 45 62 55 63 69 65 72 65 51 43 39 33 36 34 31 33 27 27 30 31 30 28 26 30 30 23 19 14 14 14 11 9 7 6 7 9 11 12 13 14 15 15 16 16 17 18 19 20 21 21 22 23 23 24 24 25 25 25 24 23 22 19 17 14 10 8 7 6 7 11 23 41 48 46 57 81 96 95 94 96 90 97 99 94 93 78 59
24 23 21 20 22 22 37 38 45 50 48 59 51 57 72 71 64 54 52 46 41 40 43 42 35 35 29 26 28 27 28 28 25 25 22 16 12 9 10 10 9 7 6 7 8 10 12 13 13 15 15 16 16 17 18 18 19 20 21 22 22 23 24 24 25 25 26 26 26 26 25 24 22 18 15 11 8 7 6 6 9 22 36 42 49 64 85 87 81 81 76 90 97 93 87 61 50
22 22 19 23 31 33 41 40 50 54 44 55 57 60 73 68 51 53 59 47 46 45 43 45 38 33 31 28 26 24 24 27 26 22 19 17 13 8 7 8 7 6 6 7 9 11 12 13 14 15 15 16 17 17 18 18 19 20 20 21 21 23 23 24 25 25 26 26 27 27 27 27 26 24 21 17 13 10 8 7 6 8 13 23 37 50 67 72 64 58 58 74 89 94 82 53 42
21 21 20 23 32 39 48 43 45 51 45 55 65 68 69 60 47 52 62 51 47 44 40 43 37 31 30 30 25 22 21 24 26 25 22 19 16 8 6 7 5 5 6 7 10 12 12 14 14 14 15 15 16 16 17 18 18 19 20 20 21 22 22 23 24 24 25 25 26 26 27 28 28 28 26 25 22 18 14 10 7 7 7 7 16 36 54 58 53 48 50 58 70 85 78 52 29
22 21 21 31 38 32 40 49 47 47 48 56 62 68 64 56 49 50 58 50 43 40 34 38 39 32 28 29 25 22 22 23 23 23 21 19 15 8 6 5 5 6 6 8 11 12 13 13 13 14 15 15 16 16 17 18 18 19 19 20 20 21 22 22 23 23 24 24 25 25 26 27 27 28 28 29 28 26 23 17 13 8 8 7 6 26 46 50 52 48 48 53 55 65 66 43 15
22 22 18 29 43 32 35 50 50 50 54 59 57 59 59 53 50 51 53 44 39 37 30 37 42 34 30 28 23 21 21 22 23 22 20 17 11 7 6 5 6 7 8 10 11 12 13 13 14 14 14 15 15 16 17 17 18 19 19 20 20 21 21 22 22 22 23 24 24 25 25 26 27 27 28 29 30 30 29 26 22 16 11 10 6 15 27 33 44 39 38 51 47 45 46 26 5
20 36 41 37 43 39 43 49 48 53 54 57 55 55 57 54 50 51 52 41 38 41 33 33 30 26 32 30 22 19 20 22 22 23 21 13 8 6 6 6 6 8 9 10 11 12 12 13 13 13 14 15 15 16 17 17 18 18 19 19 20 20 21 21 22 22 22 23 23 24 24 25 25 26 27 28 29 30 31 31 29 26 19 14 11 9 11 13 21 19 17 29 26 22 23 11 3
21 43 49 39 44 41 41 45 50 54 50 54 53 52 54 54 51 43 42 38 38 44 36 28 22 20 26 26 20 16 17 21 21 21 20 13 9 7 6 7 7 8 9 10 12 12 12 13 13 13 14 14 15 16 16 17 18 18 19 19 20 20 21 21 21 22 22 23 23 23 24 24 25 25 25 26 28 28 29 32 31 31 29 24 20 14 11 9 9 9 8 11 9 7 8 4 3
19 29 31 31 45 48 46 43 46 47 44 50 45 46 53 50 46 36 35 38 38 38 29 24 24 21 20 22 20 16 15 17 20 21 21 16 10 7 6 7 7 9 10 11 11 12 12 13 13 13 14 14 15 16 17 17 18 19 19 19 20 20 21 21 21 22 23 23 24 24 24 24 24 24 25 25 25 27 28 29 31 32 33 32 30 25 20 15 11 10 9 8 8 7 6 4 4
12 20 34 37 36 41 45 40 45 49 46 45 36 42 52 45 39 34 34 36 33 28 24 26 26 21 19 21 18 14 13 14 18 21 22 18 11 7 7 7 8 9 10 11 11 12 12 12 13 13 14 15 15 17 17 17 18 19 19 20 20 21 21 22 23 23 24 24 24 24 25 25 25 25 24 25 24 25 27 27 29 31 32 33 34 33 30 25 20 15 12 10 10 9 8 7 5
10 20 41 42 33 32 36 36 44 48 46 42 33 40 48 41 34 31 33 32 30 27 25 26 24 21 18 17 16 13 12 13 16 21 22 18 12 8 7 7 8 9 10 10 11 11 12 12 13 13 15 16 16 18 18 18 19 19 20 21 21 22 23 23 24 24 25 25 25 25 25 26 25 26 25 25 25 25 25 25 27 28 30 32 33 35 35 33 30 24 19 15 13 12 11 9 7
9 22 39 39 42 40 34 33 39 41 41 38 33 39 45 38 30 28 29 28 29 28 25 26 24 22 19 18 17 15 14 14 15 20 22 19 14 9 7 8 8 9 10 11 11 11 12 12 13 14 15 16 18 18 19 20 20 21 22 22 23 23 24 25 25 25 25 25 26 25 25 26 25 26 26 26 27 26 26 25 25 27 28 29 31 33 35 37 36 33 28 22 19 16 14 12 10
17 40 41 36 49 45 34 29 32 36 32 31 31 36 40 37 29 25 25 24 24 25 23 24 25 23 22 21 19 18 17 17 17 17 20 19 16 10 7 7 9 10 10 11 11 11 12 12 13 15 16 17 18 19 20 21 21 23 23 24 24 24 25 25 25 25 26 26 26 26 25 25 26 26 26 26 27 27 27 26 26 26 26 27 28 29 32 35 38 39 36 31 26 22 19 15 13
25 45 36 43 58 38 24 22 23 25 22 26 31 31 35 34 26 21 24 24 22 24 24 22 23 24 22 22 21 21 20 20 19 17 18 18 16 11 7 7 9 10 10 11 11 12 12 12 14 15 17 18 19 20 21 22 23 23 24 24 24 25 25 25 26 26 26 27 27 28 27 26 27 26 26 26 27 27 27 27 27 26 26 26 26 27 29 31 34 38 40 39 35 30 25 20 17
20 26 25 49 59 29 15 15 15 16 16 23 27 28 30 30 24 20 22 24 25 26 25 22 22 22 21 22 22 21 21 21 19 18 17 17 17 12 8 8 9 10 10 11 11 11 12 13 15 16 17 19 20 21 22 23 23 23 24 24 25 25 25 26 26 27 27 28 29 29 29 28 28 28 27 27 27 27 27 28 28 27 27 26 26 26 27 29 31 34 38 41 41 39 34 28 24
16 22 30 42 37 21 13 12 14 13 13 20 25 26 26 25 23 21 19 23 28 25 18 18 18 16 17 20 21 21 21 20 19 18 18 17 17 13 9 10 9 10 10 11 12 12 13 14 16 18 19 20 20 21 22 23 23 23 24 25 26 26 26 27 27 28 29 29 30 31 31 31 30 30 29 29 29 28 28 28 28 28 28 28 27 27 27 27 28 31 34 37 41 43 42 37 32
14 21 26 26 20 16 13 12 14 13 13 19 24 24 21 21 20 20 21 24 24 19 14 14 14 14 15 16 17 19 19 19 18 17 18 17 16 14 11 11 11 11 12 13 13 13 15 16 18 19 19 20 21 21 22 23 24 24 25 26 27 27 28 28 28 29 30 30 32 32 33 33 33 33 32 31 31 30 29 29 29 28 29 28 28 27 27 27 27 28 30 32 36 39 43 44 40
17 21 16 15 17 13 12 13 14 13 13 17 22 21 19 18 18 19 20 21 18 14 14 14 13 14 14 15 15 16 17 17 17 16 17 17 17 15 14 13 12 12 14 14 15 16 17 18 19 20 20 21 21 22 23 23 24 25 26 27 27 29 29 29 30 30 30 31 32 33 34 35 35 35 35 34 34 33 32 31 30 29 29 29 29 29 27 27 27 27 27 29 30 33 38 42 44
17 24 17 12 15 12 12 14 13 14 13 15 18 18 17 18 19 19 18 16 14 13 15 14 15 15 15 15 15 15 16 16 16 16 17 18 18 17 16 15 15 14 16 16 17 18 19 20 21 21 21 21 22 22 23 24 25 26 27 28 29 30 30 30 31 31 32 32 33 35 36 36 37 37 37 36 36 36 35 34 33 31 31 30 30 30 29 28 27 27 27 27 28 29 31 35 40
21 22 17 12 14 14 14 14 14 14 13 13 16 16 15 16 18 18 16 13 13 14 14 15 15 16 16 15 16 15 16 17 17 18 18 19 19 19 18 17 17 17 17 19 20 20 21 22 22 22 23 23 24 24 24 26 26 27 28 29 30 30 31 31 31 32 32 33 35 36 37 38 38 38 38 38 38 37 37 37 36 34 33 31 31 31 31 30 28 28 27 27 27 27 28 29 32
24 17 14 13 14 14 14 15 15 14 14 13 15 17 15 14 18 18 15 13 14 14 13 15 15 15 16 15 16 16 16 17 17 19 19 19 20 20 20 19 19 19 20 21 22 23 23 24 24 24 24 24 25 25 26 27 27 28 29 30 31 31 32 32 32 33 34 35 37 38 39 39 39 40 39 40 40 39 39 39 38 37 36 34 34 33 32 31 30 29 28 28 27 27 28 27 28
19 14 13 13 14 15 15 15 15 15 13 14 16 19 18 15 19 19 14 13 14 14 13 14 14 14 15 15 17 17 17 18 18 19 20 20 20 20 20 20 20 20 21 23 23 24 25 25 25 25 25 26 26 27 27 28 29 29 30 31 31 32 33 34 34 35 36 37 38 40 40 40 41 41 41 42 42 41 42 41 41 40 39 37 36 36 35 33 32 31 30 29 28 28 28 27 27
13 14 14 17 19 14 16 16 15 17 14 15 18 20 20 18 21 21 13 13 15 14 14 13 14 15 14 16 18 18 18 18 19 20 20 20 20 20 21 20 21 22 22 23 24 25 26 26 26 25 26 26 27 28 29 30 31 31 32 33 33 34 34 35 36 37 38 39 40 41 42 42 43 42 43 43 43 44 44 43 43 42 42 40 39 38 37 36 35 33 32 31 30 29 28 28 27
14 17 16 31 41 28 20 20 15 16 16 16 18 21 27 28 23 17 12 14 15 14 15 13 14 14 15 18 19 19 19 19 20 20 20 20 20 20 21 21 22 22 24 25 26 26 27 27 26 27 27 27 28 28 29 30 31 31 32 32 33 34 34 36 37 38 40 41 43 43 44 44 44 45 45 46 46 46 47 46 46 46 46 44 42 41 39 38 37 35 34 33 32 31 29 29 28
18 23 24 37 48 43 28 19 17 16 17 17 18 27 39 39 24 14 14 16 15 15 15 14 14 15 16 19 19 19 19 19 20 19 20 20 20 21 21 23 23 24 26 27 27 27 26 26 26 27 27 28 29 30 31 32 33 34 34 36 36 38 38 39 41 42 43 45 46 46 47 48 48 49 49 50 51 51 52 52 51 52 50 49 47 45 43 41 39 38 36 35 34 33 32 30 30
29 25 46 54 36 49 43 21 20 16 18 18 18 32 36 31 22 16 17 16 16 16 15 15 15 15 16 18 18 18 19 19 19 19 20 21 21 23 23 25 26 26 27 26 27 27 27 29 30 31 32 33 34 36 37 37 38 38 38 39 40 42 43 43 44 45 46 46 47 48 50 51 52 52 53 55 56 56 56 56 56 56 54 52 50 48 47 45 43 41 39 38 36 35 34 32 31
57 27 52 68 36 56 56 24 22 17 20 21 20 37 36 27 24 19 18 17 17 15 15 17 15 15 16 17 17 18 19 19 20 20 21 22 23 24 24 25 26 27 27 28 30 31 32 34 36 36 36 36 36 35 35 34 34 33 34 35 36 38 38 39 41 43 44 45 46 47 48 50 51 52 52 53 53 52 52 52 52 54 54 53 52 50 49 48 47 45 44 42 40 38 36 34 33
75 39 41 59 42 50 46 28 29 20 21 23 23 36 35 29 24 18 19 19 19 17 16 17 16 17 16 16 18 18 19 19 20 21 21 23 24 25 25 27 29 30 32 33 35 36 37 37 36 35 34 34 33 31 30 29 28 28 28 29 30 31 32 33 34 35 38 40 40 40 40 41 43 43 41 40 38 36 37 39 40 45 50 51 51 51 50 50 48 47 47 46 44 42 40 38 35
58 47 42 55 48 41 40 38 33 24 25 27 29 35 30 27 23 20 23 22 22 20 17 18 17 17 16 17 18 18 19 21 22 23 24 26 27 28 30 31 33 34 35 37 38 39 40 39 38 38 37 37 37 36 34 32 31 30 27 25 24 25 27 29 31 35 36 36 35 33 32 31 32 34 34 33 31 28 28 28 30 34 41 46 47 48 48 50 49 47 48 48 47 46 45 43 39
30 35 35 43 48 41 44 45 36 30 31 32 35 37 33 29 26 24 26 26 26 23 19 20 19 18 18 18 18 19 21 23 25 27 28 30 31 32 33 33 35 36 39 41 42 43 43 43 43 42 43 43 44 44 41 39 37 34 32 28 26 25 25 27 31 37 39 37 37 35 34 33 33 34 33 32 30 29 29 29 29 30 35 39 41 43 44 47 49 48 48 48 48 47 49 49 46
25 37 38 36 43 42 43 48 51 40 33 39 39 37 37 32 32 33 30 30 31 29 23 21 21 20 20 20 21 23 24 26 29 31 31 32 32 33 34 36 39 42 45 45 45 46 46 47 47 47 47 48 49 48 45 43 42 41 39 36 34 35 36 35 35 38 41 41 41 40 40 39 39 37 36 37 36 36 36 35 33 32 34 37 37 38 39 43 47 48 48 48 48 48 49 51 51
35 39 42 43 45 43 40 45 58 47 35 47 45 42 47 39 38 39 33 33 33 31 27 26 28 26 25 26 27 29 29 31 32 32 33 33 34 37 40 43 45 46 47 48 48 48 50 51 51 51 51 51 51 51 50 50 52 52 51 50 49 50 51 51 48 47 50 51 49 48 48 48 49 49 50 54 54 52 50 47 44 40 40 41 40 38 38 40 43 45 47 48 48 49 48 50 52
41 37 37 45 48 46 41 41 60 54 38 52 54 46 46 41 42 43 41 43 38 32 34 37 38 35 34 33 34 36 35 34 34 34 35 36 40 43 46 48 48 48 48 50 50 52 54 54 53 53 53 53 53 54 53 55 59 59 58 58 60 61 61 61 60 59 61 64 64 63 62 61 61 62 63 65 66 64 63 61 58 54 52 50 47 43 41 42 43 45 46 47 48 48 47 48 50
45 47 44 46 51 52 51 52 65 58 39 51 58 44 41 45 47 44 47 51 43 38 40 43 41 39 39 37 38 39 38 37 36 38 40 42 46 48 49 50 49 50 51 52 54 55 56 54 54 54 52 51 51 51 50 52 55 55 54 54 57 62 63 64 67 69 70 71 70 69 68 67 66 67 68 68 69 69 69 68 68 67 65 63 59 53 48 46 46 48 48 47 47 48 47 47 48
44 45 41 45 51 48 49 56 63 57 44 50 54 48 48 53 50 43 43 46 45 42 41 41 40 39 39 39 40 39 38 40 40 43 46 47 49 50 51 51 52 52 52 54 56 56 56 56 55 53 51 50 49 49 49 50 51 52 53 52 54 58 61 63 66 67 68 68 67 66 67 67 67 68 68 69 70 71 71 71 71 72 72 71 69 65 60 55 52 52 52 51 48 47 48 47 47
60 56 40 44 49 42 48 58 57 53 53 51 46 48 51 50 49 47 44 43 43 43 42 42 41 40 41 41 41 41 39 40 45 50 51 51 52 53 54 54 53 53 53 55 56 56 56 55 54 52 51 50 50 51 50 51 53 54 55 55 56 57 59 61 61 60 58 59 60 63 66 67 67 68 68 70 72 73 73 72 73 74 74 74 73 70 68 65 62 58 58 58 54 50 48 48 49
59 62 47 45 46 43 51 56 50 47 49 45 39 48 57 52 48 50 50 48 48 46 47 46 44 42 41 42 43 43 43 45 50 53 54 55 55 55 55 54 54 53 53 54 54 55 54 53 53 52 53 53 54 55 55 56 56 57 58 57 55 55 56 58 58 56 53 51 49 52 62 69 68 67 68 71 72 72 73 74 75 75 75 75 75 73 71 70 69 65 63 63 62 59 53 51 50
45 57 58 55 50 46 48 47 46 50 47 42 40 47 57 54 46 48 52 53 53 51 51 49 45 43 42 45 46 44 47 51 54 56 56 56 55 56 55 54 54 54 54 55 54 55 55 55 57 57 57 57 55 53 51 49 47 47 49 48 43 37 38 44 46 46 43 40 37 39 49 59 61 59 60 66 70 70 71 74 77 77 77 77 76 75 73 72 72 69 67 66 66 66 63 59 55
49 60 59 52 45 43 48 43 43 53 51 51 54 46 49 56 49 48 52 54 56 55 56 54 48 47 47 48 49 48 52 55 56 57 56 56 56 56 55 55 56 57 58 58 57 59 59 59 59 57 54 50 46 42 36 31 26 25 26 26 23 16 15 22 27 29 25 21 24 26 29 33 35 36 41 51 62 68 71 74 77 78 79 79 78 77 75 74 73 70 68 67 67 68 68 67 64
50 62 58 52 47 47 53 48 52 64 55 53 61 47 47 60 53 48 51 53 57 56 58 59 53 51 53 53 53 54 57 58 57 57 56 58 58 57 59 59 60 60 61 60 60 60 58 57 54 50 46 42 38 32 24 19 13 10 9 8 8 7 8 14 19 20 17 15 15 15 15 16 18 23 30 42 56 66 70 72 74 75 76 78 79 79 77 75 73 71 69 67 66 67 68 68 69
46 59 58 60 66 65 57 53 61 69 59 53 57 48 46 58 55 51 54 55 58 59 59 61 56 55 58 60 60 60 61 60 58 59 58 59 59 60 61 60 61 61 61 61 60 58 56 54 52 48 46 43 38 29 19 12 8 5 4 3 6 10 11 13 14 14 16 18 17 16 19 21 25 31 36 44 55 63 66 68 69 70 72 74 75 76 76 74 72 71 71 68 66 66 67 68 68
46 54 51 52 63 65 66 75 66 54 63 64 58 51 44 54 58 51 55 61 60 61 63 63 60 61 63 64 64 63 62 61 60 60 59 60 60 60 61 61 62 63 62 62 60 60 59 56 55 53 50 47 40 29 16 8 5 4 3 4 8 14 16 15 13 13 16 19 20 23 27 30 33 37 38 39 45 50 54 58 61 65 68 71 73 75 75 74 72 71 71 71 69 66 65 67 68
54 53 44 39 50 50 55 80 67 49 67 67 56 55 47 54 58 49 56 65 62 62 65 68 68 67 67 65 64 63 62 61 60 60 59 60 60 61 63 63 64 65 64 64 64 64 63 60 58 55 51 47 38 24 11 5 4 3 4 4 6 13 17 19 23 24 22 17 17 20 22 23 21 20 20 24 32 44 56 65 70 73 76 78 80 81 81 79 77 75 74 73 73 69 65 64 67
53 51 51 49 58 56 52 67 63 57 67 55 46 48 44 51 55 54 63 65 63 63 62 66 68 67 68 67 64 62 61 60 59 60 61 61 63 64 66 66 68 69 68 68 67 65 62 59 55 50 45 37 26 14 6 4 4 3 5 5 7 12 14 15 19 20 15 11 11 10 8 9 11 19 34 47 58 68 78 85 87 85 85 84 83 82 83 85 84 83 81 79 76 72 68 64 65
41 45 60 59 55 56 62 67 58 55 59 49 43 45 48 54 53 63 72 66 65 63 58 60 58 56 64 68 67 63 62 63 63 64 65 67 70 71 72 73 72 72 70 69 65 61 58 53 47 41 33 22 12 7 5 5 7 7 7 10 13 13 9 7 8 8 8 7 7 9 14 23 36 55 72 82 87 89 88 90 90 87 82 77 72 67 70 80 90 90 85 83 81 76 72 66 64
45 49 52 52 50 49 58 67 58 56 63 56 45 47 60 60 55 66 68 61 66 63 57 57 50 49 56 63 70 68 66 69 69 71 73 75 77 77 76 76 73 71 68 64 60 57 53 43 34 29 20 11 6 6 5 9 18 23 23 25 24 16 8 6 6 7 7 8 15 26 36 48 62 79 88 88 88 88 84 80 75 70 62 54 47 40 40 55 78 92 92 86 81 77 75 71 66
46 50 41 45 58 52 55 71 64 58 72 75 62 56 59 56 54 59 56 56 65 63 59 57 52 53 52 57 71 74 75 76 75 77 79 79 79 77 76 73 70 67 64 60 58 53 41 28 23 22 15 8 7 6 7 16 31 38 35 30 21 11 7 8 9 8 9 19 35 46 51 59 73 82 81 70 62 57 51 45 38 33 28 23 20 17 16 22 38 65 89 95 88 81 78 75 71
39 44 41 45 51 44 49 67 65 60 68 71 66 61 58 57 54 52 54 60 64 66 64 58 56 56 54 59 70 78 84 82 79 80 80 80 78 75 73 70 67 66 63 61 59 52 35 18 15 16 11 8 8 8 14 28 40 39 32 21 11 8 9 10 10 9 19 36 48 52 52 56 58 53 43 34 28 23 21 18 15 14 12 12 11 10 11 11 13 26 52 78 91 93 91 84 77
40 43 47 46 46 51 58 61 66 72 72 65 65 70 72 73 65 53 56 65 67 70 69 60 59 58 57 63 72 83 89 83 81 81 79 80 77 74 73 69 68 66 64 63 61 56 39 18 14 15 12 11 10 13 32 53 52 37 25 14 9 11 11 10 11 18 33 45 47 47 44 36 28 22 18 18 17 15 15 15 14 14 13 13 12 11 11 12 13 12 17 35 59 79 91 94 90
38 39 43 40 44 63 66 59 64 72 74 77 79 74 71 78 79 62 56 67 71 70 68 63 62 61 60 67 77 86 87 81 81 82 80 79 76 74 72 69 68 66 64 64 62 52 33 17 18 18 14 13 9 21 54 69 50 29 19 13 12 14 12 12 21 35 48 52 50 49 38 24 18 18 18 17 17 17 17 17 17 15 15 14 14 15 14 13 14 14 13 15 24 44 66 83 94
45 42 44 41 47 64 61 55 69 71 70 83 85 75 69 71 74 63 56 65 70 68 69 68 65 63 62 71 82 86 84 82 83 82 80 78 75 75 73 70 69 66 67 68 60 44 26 19 19 14 12 12 10 28 56 54 32 20 17 14 15 15 13 22 38 52 60 63 64 58 42 28 22 20 20 19 19 20 18 18 19 18 18 18 17 17 17 17 15 15 17 16 17 28 40 51 70
50 50 50 45 47 63 60 52 63 66 65 80 86 83 79 65 57 60 61 63 65 67 70 67 65 63 63 71 83 85 84 82 81 80 78 78 78 77 73 70 68 69 71 68 53 35 26 24 21 14 12 12 19 40 48 33 19 18 18 17 17 16 19 32 48 61 72 74 70 58 42 30 24 22 24 23 22 22 22 22 22 22 22 21 21 22 21 22 21 18 18 19 18 23 27 27 37
50 49 49 51 52 60 63 66 76 72 68 80 82 80 82 66 55 61 63 61 63 66 66 63 62 61 59 67 79 84 84 79 75 78 80 81 80 76 73 70 69 72 71 60 42 29 27 27 22 17 14 16 35 51 41 22 18 19 18 18 19 19 26 39 52 66 76 71 58 44 33 27 25 26 26 25 26 26 26 26 25 25 27 25 25 26 26 27 27 25 22 21 20 22 25 24 24
Wind_Speed
2 3 2 1 1 1 0 1 1 3 2 0 2 1 3 1 3 2 1 1 0 3 5 3 5 9 5 1 3 2 2 6 5 4 3 2 4 9 11 10 7 7 9 8 7 5 4 3 4 4 4 4 4 4 4 5 6 7 8 9 11 12 12 13 13 14 15 16 16 16 15 14 13 12 11 10 10 9 9 9 9 9 10 10 10 10 10 10 11 11 11 10 10 9 8 8 9
2 2 1 1 2 1 1 2 1 3 2 1 3 3 3 0 2 5 7 5 2 3 6 6 6 8 4 2 2 1 3 6 5 4 2 3 7 9 11 10 7 7 8 7 5 4 3 2 2 3 3 3 4 5 6 7 9 10 11 11 12 13 13 14 14 15 16 17 17 18 17 16 16 14 13 13 11 10 9 9 9 9 10 10 10 10 10 10 10 11 11 10 10 10 9 9 10
2 2 1 2 2 1 2 3 1 1 2 3 5 4 2 3 6 7 9 6 2 7 8 7 6 6 4 1 2 3 5 7 7 5 2 4 6 6 9 9 8 8 7 6 4 3 2 1 1 2 3 5 6 7 8 9 10 11 12 12 13 13 14 15 16 17 17 18 18 18 18 18 17 16 15 14 13 12 11 10 9 9 9 10 10 10 10 10 10 11 11 10 10 10 10 10 10
2 2 2 2 1 2 3 3 1 4 2 3 3 5 4 5 8 5 6 6 5 10 8 7 5 4 5 3 3 3 7 8 9 8 4 4 5 5 6 7 8 8 7 5 4 3 1 1 1 3 5 7 8 9 9 10 11 12 12 13 14 14 15 16 17 18 18 18 19 19 18 18 17 17 16 15 14 13 12 11 11 10 9 10 10 10 10 11 11 11 11 10 10 10 10 11 11
3 3 2 2 0 1 3 2 2 4 4 4 2 5 5 6 6 3 5 7 9 10 6 6 3 3 6 6 4 2 4 5 8 9 6 5 6 5 5 6 8 7 7 6 5 4 2 2 3 6 8 8 9 9 10 11 12 13 13 14 14 15 16 17 18 18 19 19 19 19 19 19 18 18 17 16 15 14 13 12 12 11 11 10 10 10 10 11 11 11 11 11 10 10 10 10 11
4 3 2 2 1 1 2 1 2 2 5 5 3 6 5 5 6 7 7 8 9 7 5 6 4 2 5 6 8 6 2 1 4 8 7 5 4 4 5 7 8 8 8 7 6 4 3 2 4 7 8 9 9 10 11 11 12 13 13 14 15 15 16 17 18 18 19 19 19 19 19 19 19 19 18 17 16 16 15 14 13 12 12 11 10 10 10 11 11 10 11 11 10 10 11 11 12
3 2 2 1 2 2 2 3 4 4 4 5 4 5 5 6 10 11 9 6 6 7 7 8 4 1 4 4 7 10 8 3 2 5 6 4 3 3 5 7 8 8 8 7 5 3 3 3 5 7 8 9 10 10 11 11 12 12 13 14 15 16 16 17 17 18 18 18 18 18 18 18 19 19 18 17 17 16 16 15 15 14 13 13 11 10 10 10 10 10 11 10 10 10 11 11 12
3 1 2 3 1 3 2 2 3 4 3 3 4 4 5 10 16 13 8 5 4 7 8 10 7 2 4 5 4 8 11 9 6 5 5 3 2 2 4 6 7 7 7 6 4 3 3 3 5 7 8 9 9 9 10 10 11 12 13 13 14 15 15 16 17 17 17 18 18 18 18 18 18 17 17 17 16 16 16 16 15 15 15 14 13 11 11 11 11 11 11 10 10 10 11 12 12
3 2 2 2 1 2 2 2 4 4 4 4 3 4 5 14 18 13 9 5 4 7 10 12 10 4 4 5 7 7 9 11 10 8 6 5 3 2 3 5 5 6 6 5 4 3 3 3 5 6 7 7 8 8 9 9 11 11 12 13 13 14 15 15 16 17 17 17 18 18 18 18 17 17 17 17 17 17 16 16 15 15 15 15 15 13 12 11 12 12 11 11 10 10 11 12 13
3 2 1 2 1 1 4 3 3 3 5 4 4 5 7 17 17 11 10 6 6 7 9 13 11 10 5 3 8 7 8 10 11 10 8 6 2 2 3 5 6 5 5 4 4 3 3 3 4 5 5 5 6 7 8 8 10 10 11 12 12 13 14 14 15 16 17 17 18 18 18 18 18 18 18 18 18 18 17 16 16 15 15 15 16 14 13 13 13 13 12 12 12 11 11 13 15
1 2 2 2 2 1 4 4 4 4 4 4 5 5 10 19 15 8 8 5 8 7 8 12 9 13 8 5 8 8 8 8 8 8 6 5 3 3 4 6 7 6 5 4 3 2 2 2 2 3 4 4 5 6 7 8 8 9 10 10 11 12 12 13 14 15 15 16 17 18 18 18 19 19 19 19 19 19 18 17 16 16 15 15 15 15 14 14 14 14 14 13 13 13 13 15 17
1 1 3 2 2 3 4 3 5 5 5 4 3 5 11 18 12 6 9 7 9 9 10 15 6 7 7 4 8 9 9 8 7 7 6 5 4 5 5 6 7 8 7 5 3 2 1 0 1 2 3 4 5 5 6 7 7 8 8 9 10 11 12 12 13 14 14 15 16 16 17 18 19 19 20 20 20 20 19 19 18 17 16 15 15 14 14 14 15 15 15 15 15 15 15 17 18
2 2 5 2 3 3 3 2 4 4 5 4 3 6 13 16 12 11 13 8 10 9 9 17 9 3 5 4 6 9 9 9 8 9 8 6 6 7 7 7 8 8 7 5 4 3 2 1 2 2 3 4 5 5 6 6 7 7 8 9 10 11 11 12 13 13 14 14 15 15 16 16 17 18 19 19 19 19 19 20 19 18 16 16 15 14 14 13 14 15 16 16 17 17 17 17 17
3 4 4 2 1 1 4 1 3 2 4 5 4 9 16 14 11 13 12 7 12 12 5 13 13 4 4 4 6 8 7 8 10 11 10 9 8 8 8 8 8 7 7 6 5 4 3 3 3 4 4 5 5 6 6 6 7 7 8 9 9 11 12 12 13 13 14 14 14 14 14 15 15 16 17 17 18 18 19 19 19 18 17 17 16 15 14 14 13 14 14 15 16 17 17 17 16
3 5 4 1 1 1 3 2 1 4 5 5 6 13 18 13 9 11 13 9 11 14 5 8 13 5 3 3 2 2 2 5 9 11 12 11 10 9 9 8 8 8 8 7 7 6 5 4 5 5 5 5 6 6 6 6 7 7 8 9 9 10 11 12 13 13 14 14 14 14 14 14 14 15 15 15 16 16 17 17 18 18 18 18 17 16 15 15 14 14 14 14 15 16 16 16 15
4 4 4 1 2 2 3 3 2 3 5 4 7 13 14 12 11 8 12 10 8 11 10 10 14 10 6 4 2 1 2 4 8 12 13 13 12 12 11 10 10 10 10 9 8 7 6 6 5 5 6 5 6 6 6 7 7 8 8 8 9 10 11 12 13 14 14 14 14 14 14 14 14 14 14 15 15 15 15 16 17 17 18 18 18 17 16 15 15 14 14 14 15 16 16 15 15
4 4 3 0 3 3 4 5 4 4 5 3 6 14 11 6 10 9 9 10 9 10 12 12 14 16 14 10 7 5 4 5 8 13 15 15 15 14 14 13 12 11 10 9 8 7 7 6 5 5 5 5 5 6 6 6 6 7 8 8 9 10 11 12 13 14 15 15 16 15 15 15 15 15 15 15 15 15 15 15 15 16 17 17 18 18 18 17 16 15 14 14 15 16 16 16 16
3 3 3 2 3 4 5 7 7 4 2 4 7 14 12 5 7 8 6 8 11 11 13 15 16 18 20 18 15 11 9 9 10 13 16 17 17 17 15 13 12 10 9 9 8 7 6 5 5 5 4 4 5 6 6 6 6 7 7 8 9 10 11 12 13 14 16 17 18 18 18 17 17 17 16 16 16 15 15 15 15 15 16 16 17 18 18 17 17 16 15 15 15 15 16 16 17
3 3 2 4 5 5 4 6 7 4 2 4 7 11 12 8 6 5 5 6 8 9 12 15 17 20 21 22 21 18 14 12 12 14 17 18 19 18 15 13 12 10 8 7 5 5 5 5 5 5 4 5 6 6 6 6 6 7 8 8 9 10 12 13 14 16 17 18 19 20 20 19 19 19 18 18 17 17 16 16 16 15 15 16 16 16 17 18 17 17 16 16 15 15 15 16 16
2 3 2 6 6 4 3 4 5 4 5 3 5 8 10 11 7 4 5 6 5 9 13 14 18 23 23 23 22 20 17 15 15 15 16 18 19 18 15 12 10 8 6 5 4 6 6 5 5 5 5 6 6 6 7 7 8 8 9 10 11 12 13 14 15 17 18 19 20 21 21 21 20 20 20 19 19 19 18 17 16 16 15 16 16 16 17 17 17 17 17 17 16 15 15 15 15
2 4 4 5 4 2 5 6 4 4 4 4 4 4 6 12 10 7 5 3 6 13 19 19 20 22 21 23 23 21 19 17 17 16 17 18 18 18 16 13 9 7 6 7 7 6 6 5 5 5 6 6 7 8 8 9 10 10 11 12 13 13 14 15 16 18 19 20 21 22 23 22 21 21 20 20 20 20 19 19 18 17 16 16 17 17 17 17 17 17 17 17 17 17 16 16 15
2 3 4 4 5 2 4 6 6 4 4 4 4 4 4 7 9 12 10 6 10 13 13 13 14 13 14 18 20 21 21 19 19 18 17 17 18 18 17 15 12 11 10 9 7 6 6 6 5 5 6 7 8 9 10 11 12 12 13 13 14 15 15 16 17 18 19 21 22 23 24 23 22 22 21 21 21 21 20 20 20 19 18 18 18 17 17 18 18 18 17 17 17 17 17 17 17
2 3 3 5 6 3 3 6 7 6 5 5 5 5 5 4 6 12 15 19 22 18 12 10 8 6 8 11 15 18 19 19 19 18 17 16 16 16 15 14 13 12 11 10 8 7 7 6 5 6 7 9 10 11 12 13 13 13 14 14 15 16 16 17 18 19 20 21 23 24 24 24 23 22 22 21 22 22 21 21 21 21 20 19 19 19 18 18 18 18 18 18 17 17 18 18 18
2 3 3 6 7 6 5 6 8 6 6 7 5 5 6 6 6 6 16 28 28 24 20 17 13 9 9 11 13 15 15 17 17 16 17 16 14 13 13 11 10 11 11 9 7 7 6 6 7 8 9 10 11 12 13 13 13 14 15 15 16 17 17 18 19 20 21 22 23 24 24 24 23 23 22 22 22 22 22 22 22 22 21 21 21 21 20 19 19 19 18 18 18 18 18 18 18
3 3 4 5 6 8 7 7 8 7 6 6 6 8 8 8 6 8 21 29 24 22 22 21 18 14 13 13 14 13 14 15 16 16 17 16 16 15 13 11 10 10 8 5 5 5 5 6 8 9 11 11 11 12 13 13 14 14 15 16 17 18 19 19 20 20 21 22 23 23 23 23 23 22 22 22 22 23 22 23 23 22 22 21 21 22 21 21 20 19 19 19 19 19 18 18 19
3 4 4 4 3 5 7 8 8 8 7 5 5 8 8 5 5 11 19 16 11 10 12 16 19 18 17 16 14 12 11 13 15 16 16 16 17 16 14 11 10 8 4 3 3 4 5 7 9 9 10 10 10 11 12 12 13 14 15 17 18 19 20 20 21 20 21 21 22 22 22 22 22 22 22 22 22 23 22 23 22 22 21 20 21 21 21 22 22 21 20 20 20 20 19 18 19
2 2 3 3 3 4 6 7 7 7 7 6 5 7 8 5 2 8 13 6 6 6 3 10 15 17 17 15 12 10 9 11 12 14 16 17 16 14 12 11 9 4 2 3 5 6 7 8 9 9 9 9 10 10 11 13 14 15 16 17 18 18 19 19 19 18 19 19 20 20 20 21 21 21 21 21 22 23 22 22 22 21 20 19 20 21 21 22 22 22 21 21 21 21 20 19 20
1 2 2 3 4 6 7 7 7 5 4 5 5 6 8 3 1 11 16 10 7 6 3 6 11 14 15 13 11 9 9 10 11 13 14 14 12 10 8 7 5 3 4 6 8 10 10 10 10 10 11 11 11 11 12 12 13 14 14 15 15 15 15 16 16 16 17 18 19 19 19 19 20 21 21 21 21 22 22 22 22 21 19 18 19 20 20 21 21 22 21 21 22 22 22 21 21
1 3 2 6 7 4 7 6 7 6 1 2 0 5 7 3 7 12 11 8 8 6 4 5 9 12 12 11 9 8 8 9 10 10 10 9 7 6 4 5 6 6 8 9 10 10 10 10 11 11 11 11 11 11 11 11 12 13 13 14 14 14 15 15 15 16 17 17 18 18 18 19 20 20 20 21 21 22 22 22 21 20 19 18 19 20 20 21 21 22 21 22 23 23 24 23 23
1 2 1 4 7 5 4 1 5 6 2 1 2 4 7 7 13 11 5 7 8 7 8 7 7 10 10 10 8 7 6 7 6 4 6 6 6 6 5 6 7 8 7 7 8 8 8 9 9 9 9 9 9 9 10 10 11 12 13 14 15 16 17 17 17 17 17 18 18 18 19 20 20 20 20 21 21 21 21 21 21 20 18 18 19 19 20 20 21 21 21 22 23 24 25 25 25
1 2 2 2 2 5 5 1 6 5 1 2 5 2 7 10 14 12 10 12 10 9 10 8 8 9 9 8 7 6 6 5 3 5 7 7 6 7 7 6 7 7 6 6 5 5 5 5 5 5 5 6 6 7 8 9 10 11 12 13 14 15 16 17 18 19 19 19 20 21 21 21 21 21 21 21 21 21 22 22 21 19 18 18 19 18 19 20 20 20 20 21 23 23 25 26 26
3 1 3 3 2 5 8 1 7 4 1 4 5 1 7 11 13 10 5 7 8 10 11 9 10 10 10 9 8 7 7 6 5 8 10 10 10 10 10 10 9 8 6 5 3 2 1 1 1 2 3 4 5 6 8 9 10 11 12 13 14 15 16 17 18 19 20 21 22 22 22 22 22 22 21 21 22 22 22 23 22 20 19 18 18 18 19 19 19 20 19 20 22 23 24 25 25
4 1 3 3 2 4 6 2 3 2 2 2 3 3 5 7 4 4 6 5 6 10 13 12 12 12 11 11 10 10 10 9 10 12 14 15 15 14 13 12 11 9 7 6 5 4 4 5 5 5 6 7 8 9 10 10 11 12 13 14 14 15 16 17 18 18 19 20 20 20 20 19 18 18 18 19 20 21 22 23 23 22 21 20 19 19 19 19 19 20 20 20 22 23 24 25 25
4 1 2 4 3 3 4 4 2 2 2 2 2 4 8 10 9 5 6 11 11 12 16 14 12 12 13 13 13 14 14 14 16 17 18 17 17 15 13 12 10 8 7 6 5 5 5 6 8 10 11 13 13 14 15 15 15 16 16 16 16 16 17 17 17 17 17 17 18 18 17 16 16 16 17 19 20 20 21 21 21 22 22 23 22 21 21 20 19 20 21 20 21 23 24 25 25
2 3 3 4 3 3 5 5 2 2 1 3 2 5 10 14 15 13 13 15 14 16 16 12 10 11 14 15 14 16 18 21 22 21 19 18 16 14 11 10 8 7 6 5 6 6 8 9 11 13 15 17 18 18 18 19 19 20 20 19 19 18 17 16 16 16 16 16 17 17 17 16 16 17 19 20 21 21 21 20 20 20 21 22 23 23 23 21 20 20 21 21 21 23 24 24 25
3 4 3 4 4 4 5 5 5 3 1 5 7 7 10 12 12 13 21 21 16 17 12 6 9 14 17 18 19 22 24 25 24 21 18 15 13 11 10 8 8 8 7 7 8 9 11 12 13 15 17 18 19 19 20 21 21 21 22 22 22 21 19 17 16 16 17 17 17 18 18 18 19 20 20 22 22 22 22 22 21 21 21 22 22 23 23 23 23 22 22 22 23 23 24 23 24
2 1 2 4 5 5 6 4 5 1 2 6 7 5 9 11 8 12 22 20 9 7 6 11 16 21 23 25 26 27 27 25 23 20 17 14 13 12 11 10 8 8 8 8 9 11 12 12 13 15 16 17 18 19 20 20 21 22 23 23 23 22 21 20 19 18 19 19 20 20 20 21 22 22 23 24 25 25 25 24 24 23 23 23 23 23 23 23 24 24 24 23 23 24 25 24 23
3 1 2 4 3 6 6 2 4 2 1 4 2 3 9 8 6 11 17 13 6 4 12 17 22 26 27 29 28 27 26 24 22 19 17 16 15 13 11 9 8 7 8 9 11 12 11 11 12 13 14 14 15 16 17 17 17 19 20 21 21 22 21 21 21 20 20 20 21 22 23 24 25 25 25 26 26 27 27 27 26 26 25 25 25 24 24 23 23 24 24 25 24 25 26 24 22
2 1 0 3 3 5 6 3 4 2 1 4 4 5 8 6 5 9 14 9 8 12 16 20 25 28 27 27 26 25 25 23 22 21 19 17 14 12 10 9 8 8 9 10 11 11 9 10 12 13 13 14 15 16 17 17 17 18 19 20 20 20 20 19 19 19 19 20 20 20 21 22 24 26 26 27 28 28 28 28 28 28 27 27 27 27 27 26 25 24 24 25 26 26 27 26 23
1 2 1 4 3 1 3 4 4 2 2 3 4 5 6 6 4 7 13 13 16 20 22 23 27 28 26 26 24 23 24 24 23 21 18 15 12 10 9 8 8 8 9 10 9 8 8 9 11 13 14 15 17 18 18 18 19 19 19 20 20 20 21 20 20 20 20 22 23 22 21 20 21 23 25 26 27 28 28 29 29 29 29 28 29 30 29 29 28 26 24 24 26 27 28 28 26
3 4 4 5 4 3 5 3 5 4 2 1 3 4 3 3 4 5 9 13 17 20 24 25 25 27 26 25 23 22 22 22 22 20 17 14 11 10 10 9 8 8 9 9 7 6 8 9 11 13 15 16 18 18 19 19 20 22 22 22 22 23 23 23 24 25 26 26 28 27 25 24 23 24 24 25 26 26 27 28 29 30 30 30 30 31 31 31 30 29 27 25 25 26 28 28 28
5 4 6 6 4 3 3 4 5 4 4 1 4 4 4 2 5 4 5 7 10 12 19 20 21 25 25 24 22 19 20 21 20 19 16 13 12 11 10 9 8 8 8 7 6 6 8 10 12 14 16 18 19 20 21 22 24 25 26 27 28 28 29 28 29 30 32 32 32 32 29 27 26 26 26 26 27 26 26 25 27 29 30 31 31 32 32 32 31 30 29 28 27 26 27 29 30
3 3 3 4 3 0 3 4 4 1 3 2 3 2 4 3 4 3 3 5 7 7 11 14 18 22 23 23 21 19 21 21 19 17 15 13 12 11 10 9 7 7 7 6 6 8 9 12 13 15 17 19 21 22 24 27 29 30 31 31 32 32 32 32 32 33 34 35 34 33 31 30 29 28 28 28 27 27 26 25 25 26 28 30 30 32 33 33 33 32 30 30 29 27 27 29 31
3 3 3 3 1 3 3 0 1 3 3 3 1 3 3 3 1 1 1 6 7 6 7 9 15 20 21 22 21 21 22 20 18 16 14 14 12 10 9 7 7 7 6 6 8 10 11 13 15 17 19 22 24 27 29 31 33 34 34 33 32 31 30 31 31 32 32 32 31 30 30 30 30 29 28 27 27 26 26 26 26 26 28 29 29 31 32 33 33 33 32 31 31 30 29 30 31
5 3 2 0 2 3 3 3 3 1 3 5 4 2 2 4 2 1 1 5 6 4 5 6 11 18 20 20 21 23 23 19 16 15 14 14 12 10 7 6 6 6 7 8 10 11 13 15 17 20 24 27 30 31 33 34 34 34 33 32 30 29 28 28 29 29 29 28 29 28 29 29 29 28 27 26 26 26 26 27 28 29 30 31 31 31 33 32 32 33 34 34 33 32 31 31 31
3 2 2 2 2 2 2 3 2 2 2 4 5 0 2 3 2 3 1 4 5 5 4 4 9 15 18 19 22 23 21 17 15 14 14 12 10 8 5 4 5 6 8 9 11 14 16 19 21 25 28 31 33 34 34 34 34 33 32 30 29 28 28 28 28 28 27 27 28 29 29 29 29 29 29 28 28 28 29 29 30 32 33 33 33 34 34 34 32 32 33 34 36 36 33 33 33
1 2 2 3 4 4 3 2 3 3 2 5 6 2 2 2 3 5 3 3 6 6 5 4 9 14 17 20 22 20 17 15 14 13 12 10 7 6 4 4 6 8 10 12 15 18 20 23 26 28 31 34 36 36 35 34 33 32 30 29 27 27 27 28 28 28 28 29 30 30 31 31 31 31 32 32 31 31 31 32 32 33 33 34 34 34 35 35 34 33 33 33 37 39 38 35 35
1 3 3 4 4 3 3 4 3 2 3 5 4 2 3 1 3 3 3 3 6 8 7 6 8 13 17 19 18 16 14 13 11 9 7 5 3 3 5 7 9 11 14 17 19 22 24 27 30 33 35 37 38 37 35 33 31 30 28 27 27 27 27 26 26 27 28 30 31 32 32 33 33 33 32 31 30 29 29 30 30 31 32 33 33 33 34 34 35 35 34 34 35 39 40 39 38
4 3 4 4 4 4 2 4 1 2 4 3 1 1 1 3 2 2 4 2 4 7 9 11 12 14 16 16 14 12 10 8 7 5 4 3 4 6 8 10 13 16 18 21 24 27 29 32 34 36 37 37 37 36 33 31 30 28 27 27 26 26 25 25 26 27 28 30 30 32 32 33 32 30 28 26 26 26 27 28 29 30 31 32 33 33 33 33 34 35 35 35 35 37 40 42 42
4 1 3 3 2 3 4 4 2 4 5 3 1 2 2 2 1 4 5 5 9 15 18 18 18 17 15 13 11 9 7 6 5 4 4 5 6 8 11 14 17 20 23 26 28 31 34 36 37 37 36 35 33 32 30 28 28 27 26 26 24 24 25 27 28 29 29 29 29 29 29 28 26 25 24 24 25 27 29 30 31 33 33 34 35 35 35 34 33 35 36 36 35 36 39 43 45
3 2 4 2 2 1 4 4 2 5 5 4 3 1 2 1 2 4 3 9 16 21 21 20 19 17 15 12 8 7 6 5 4 3 4 6 8 11 14 17 20 23 26 29 32 35 37 38 37 35 33 32 30 29 27 26 25 26 26 24 23 25 28 29 29 29 29 28 27 25 24 23 22 23 25 27 29 31 34 35 36 38 39 39 40 39 38 36 34 35 37 37 36 35 37 43 47
1 2 3 1 3 3 2 3 3 3 3 3 2 1 1 0 1 3 6 12 15 16 17 18 17 15 15 13 8 5 4 3 3 4 5 7 10 13 16 19 22 25 28 31 34 38 39 37 33 31 31 31 30 29 27 25 24 26 26 26 27 29 31 31 30 30 28 25 24 23 23 24 24 26 29 32 34 36 38 40 41 42 42 42 42 41 40 38 37 37 38 37 36 34 35 41 45
0 1 1 3 3 4 1 3 1 2 1 3 1 2 0 1 1 2 5 8 8 9 12 14 15 15 16 13 7 3 2 2 4 5 7 9 12 15 18 21 24 26 30 34 37 39 40 37 34 33 33 32 31 29 26 24 24 27 28 30 32 33 32 32 31 29 27 24 23 25 26 27 29 32 35 38 39 40 41 42 43 44 43 43 43 42 40 39 38 38 39 39 38 35 35 38 41
1 1 3 2 1 4 3 1 4 3 2 4 1 2 3 2 1 1 3 6 4 4 7 10 13 16 15 12 6 1 1 3 5 6 8 11 15 17 20 22 25 29 32 36 39 41 41 37 34 33 33 32 31 28 24 23 25 28 31 33 34 33 32 32 30 27 25 25 26 27 29 32 35 38 39 40 41 42 43 43 44 45 45 45 44 43 42 41 39 39 40 41 41 38 36 37 38
1 2 2 1 1 1 1 0 2 2 2 4 4 2 3 3 3 4 5 5 4 2 4 6 10 13 13 9 3 1 2 5 7 7 10 14 16 18 21 24 28 32 35 37 38 39 38 34 31 31 32 33 31 27 22 22 26 30 32 33 33 32 31 30 27 25 25 26 28 29 33 38 40 40 41 41 42 43 44 44 45 46 46 45 45 44 44 43 41 41 41 41 42 39 38 39 38
3 1 2 1 3 3 0 0 1 1 3 4 4 4 2 3 3 5 6 5 5 3 3 5 7 10 11 7 1 2 5 7 9 9 12 15 16 19 23 27 31 33 35 36 37 38 37 33 31 32 33 33 32 27 23 26 30 32 33 33 32 32 31 28 25 24 26 27 29 32 38 42 43 42 42 43 44 44 45 45 46 46 46 46 46 45 45 44 43 43 42 42 42 41 40 42 42
3 3 3 3 1 0 1 1 1 1 2 2 3 5 4 2 1 5 6 4 4 4 3 4 5 9 12 9 4 6 9 10 10 10 13 16 18 21 25 29 32 33 35 36 38 39 36 32 32 33 33 34 31 27 27 31 35 35 35 35 34 33 31 27 25 25 27 29 31 36 41 43 44 44 44 44 45 45 46 46 47 47 47 47 47 46 46 45 45 45 44 44 44 43 44 46 46
2 0 0 1 1 2 2 4 2 1 1 3 1 5 6 2 2 4 5 5 5 5 5 3 6 11 15 12 8 9 11 11 10 11 15 17 20 24 28 31 33 34 36 37 38 38 35 32 32 34 35 34 30 28 31 35 37 36 36 35 35 33 30 27 26 27 29 32 36 39 42 43 44 44 44 45 45 46 46 47 48 48 48 48 47 47 46 46 46 47 47 46 46 45 46 47 47
Wind_Direction
191 188 209 181 223 204 260 133 123 358 80 61 292 222 260 201 148 185 247 275 217 221 195 177 153 161 155 164 216 242 198 174 172 146 189 235 142 163 167 169 171 161 162 172 181 191 222 265 300 320 332 345 354 6 18 27 32 33 36 34 34 32 31 28 25 23 20 20 17 14 11 7 3 0 359 357 359 2 1 359 6 9 8 9 7 6 6 5 2 4 3 1 360 359 354 349 344
187 193 257 259 319 222 196 72 104 326 47 303 274 194 245 319 141 202 198 194 205 173 169 173 165 184 217 288 223 305 239 208 208 187 167 145 155 166 160 163 166 160 167 176 184 196 232 275 310 340 3 23 32 38 41 42 42 41 41 39 38 37 34 31 29 26 24 23 20 18 14 11 6 2 359 356 357 358 357 355 359 4 7 6 5 5 4 2 360 3 0 1 1 358 356 350 344
224 222 280 284 330 90 120 56 90 94 96 244 268 241 207 171 208 221 195 186 154 151 160 168 170 202 211 246 211 213 236 231 227 218 215 171 174 172 159 165 166 165 175 182 187 209 234 286 7 37 44 49 49 48 48 46 46 45 43 41 39 37 35 32 30 28 26 25 22 19 16 13 9 6 1 357 355 354 354 352 354 358 2 4 2 3 1 359 358 0 359 0 0 355 354 350 340
276 269 295 306 354 71 80 52 127 124 168 220 268 261 208 198 217 221 187 170 146 156 165 167 177 228 209 229 230 233 250 241 234 224 221 196 203 213 181 176 173 175 182 181 191 212 216 109 65 61 54 53 51 49 48 47 45 43 42 40 38 36 34 32 30 28 26 24 22 20 18 15 12 9 5 2 358 353 352 350 352 351 355 359 359 1 358 358 357 359 358 359 358 352 352 351 338
299 294 305 323 9 97 83 67 106 126 210 191 223 260 226 212 201 170 157 158 160 162 169 177 199 250 223 238 217 234 262 241 239 225 219 213 217 224 199 183 180 185 185 180 191 197 167 123 75 60 54 51 50 48 47 45 43 41 40 38 37 35 34 33 30 28 26 24 22 19 18 16 14 11 9 6 1 355 352 349 349 348 349 351 355 358 357 358 356 356 356 356 355 351 353 349 336
316 314 326 341 86 98 114 173 179 202 233 173 183 260 237 215 175 139 132 150 169 175 195 204 221 253 242 248 223 229 245 210 238 217 217 220 215 207 184 178 183 186 179 178 189 179 140 103 65 59 53 49 45 45 44 43 42 40 39 38 37 36 34 33 32 29 27 24 22 20 18 17 14 12 10 7 3 358 353 349 346 346 346 346 349 354 356 356 354 354 352 354 354 353 352 341 334
332 327 1 62 81 32 121 190 211 227 244 172 185 253 240 195 159 136 129 147 184 210 221 222 220 222 249 244 231 235 229 220 183 180 190 198 197 188 175 174 180 179 174 180 184 155 120 84 67 60 50 45 41 40 41 41 41 40 39 38 36 35 34 33 32 30 27 25 23 21 20 18 17 15 13 9 6 2 357 351 345 343 343 344 344 347 353 352 350 349 348 351 351 353 347 335 336
340 346 35 86 63 12 93 204 242 216 229 208 211 249 232 177 159 145 152 168 185 213 216 216 204 181 252 227 234 239 228 230 218 188 186 214 234 190 171 170 173 173 176 182 176 140 116 79 66 57 45 40 34 35 36 39 39 39 39 36 35 33 33 31 30 29 26 25 24 23 23 22 21 18 17 15 12 8 3 356 347 340 338 338 339 341 344 345 343 340 342 346 348 351 344 336 337
336 342 23 70 137 3 16 283 265 239 249 264 252 249 211 176 165 154 167 191 193 201 211 208 190 186 265 230 239 250 229 226 224 224 224 241 253 183 161 160 163 171 181 181 170 140 118 80 62 52 41 34 27 28 29 34 35 36 36 33 33 31 30 29 28 26 24 23 22 22 23 23 22 20 20 19 18 15 10 2 354 345 339 335 334 337 338 338 338 336 339 339 341 346 341 337 335
338 12 87 74 94 314 319 282 256 259 255 267 264 238 190 175 172 166 170 198 209 200 213 203 196 217 256 259 243 250 229 221 221 230 234 234 232 179 155 151 160 173 187 180 166 143 116 76 58 46 31 24 16 15 19 26 30 31 31 30 30 28 27 27 25 24 22 20 19 19 20 21 19 20 21 20 18 17 14 8 2 354 346 339 335 337 337 336 336 335 337 335 335 336 335 333 330
342 33 103 85 64 228 251 252 258 264 271 302 288 236 192 177 171 176 180 206 211 198 194 184 207 228 235 274 247 244 226 216 216 225 229 220 202 169 158 158 167 174 183 180 168 145 119 75 52 33 15 6 359 359 6 14 20 24 24 25 25 24 24 23 23 21 19 18 17 16 16 17 16 17 19 18 17 17 14 11 7 1 355 349 342 339 337 334 333 334 334 333 332 330 330 328 327
237 19 77 108 171 211 214 229 262 281 310 316 280 216 190 176 169 190 194 208 203 194 198 186 199 216 206 270 245 243 231 211 200 201 206 201 182 173 171 169 172 175 178 180 179 170 158 100 9 353 348 341 341 342 349 358 4 9 13 16 18 17 18 17 18 17 16 15 14 14 13 15 14 14 15 14 14 14 12 11 10 7 2 357 351 345 339 333 330 329 328 327 326 325 324 324 325
202 136 93 144 197 191 177 207 272 312 323 265 225 201 185 179 191 211 195 202 195 182 215 205 202 201 210 267 248 247 236 217 201 192 193 187 186 187 179 175 175 179 184 187 188 194 210 237 292 302 315 318 323 326 330 339 344 350 357 4 8 8 10 10 11 12 12 12 11 11 11 12 12 12 12 10 9 9 9 9 9 8 6 4 360 355 348 339 331 326 323 322 322 322 320 321 322
172 149 121 190 191 124 165 193 277 227 274 247 197 184 184 188 211 221 196 195 207 195 220 209 204 232 249 257 262 260 239 222 210 198 193 187 193 192 185 181 180 186 194 196 195 207 220 243 271 285 298 305 309 311 315 321 329 335 344 352 359 1 3 5 6 8 9 9 8 8 8 8 9 10 9 7 5 4 5 4 3 4 6 6 4 0 356 349 341 332 326 323 320 319 317 317 317
156 146 108 123 14 333 194 206 204 171 245 237 182 184 186 200 221 230 209 207 225 209 205 194 196 222 249 209 258 285 222 221 213 202 195 192 195 194 195 191 189 195 201 205 203 213 223 241 260 278 290 297 302 301 304 310 319 326 337 345 353 357 359 1 2 4 5 5 4 4 5 5 6 6 5 4 1 359 360 359 357 358 1 3 3 1 358 354 349 343 336 330 324 320 318 318 316
148 145 83 81 227 265 212 198 144 152 248 219 177 184 184 211 221 229 224 222 239 214 211 205 200 218 237 219 238 270 200 219 212 205 197 196 199 198 203 201 200 202 204 209 209 217 226 240 257 274 287 295 299 298 303 307 314 323 334 342 349 354 357 359 359 0 0 360 360 360 0 2 3 2 1 359 357 354 354 354 351 352 354 355 356 357 357 354 351 348 343 337 331 326 323 322 317
143 130 78 195 203 211 203 190 173 175 254 244 176 182 178 225 223 225 242 233 238 224 221 222 219 230 241 245 248 247 235 227 215 209 204 202 204 203 207 207 206 206 206 208 210 219 230 243 256 270 283 293 298 302 307 311 316 324 335 342 348 352 353 355 355 355 354 353 352 352 353 354 357 356 356 356 354 351 349 347 345 346 347 347 349 350 351 351 350 347 345 341 336 331 328 326 321
140 118 114 214 195 201 193 182 192 171 259 247 192 188 186 220 220 223 252 242 238 240 234 231 233 236 241 246 247 249 248 241 230 220 215 211 210 209 210 211 208 206 206 208 212 221 237 252 262 273 286 294 301 310 316 321 325 330 338 342 345 347 348 348 347 348 347 347 345 343 343 345 347 346 347 349 348 347 345 342 341 341 340 340 341 341 342 344 346 345 343 341 337 334 331 328 323
125 112 138 227 204 207 197 176 191 175 280 246 201 197 200 217 223 220 245 252 240 244 245 235 236 236 237 242 244 248 250 246 239 231 227 223 220 216 212 212 208 204 204 206 215 233 251 262 272 284 300 301 306 320 324 329 332 333 336 337 339 340 341 340 340 341 342 341 339 338 338 338 339 339 338 339 339 339 340 339 337 336 334 331 331 332 333 335 339 340 340 339 335 333 331 328 325
140 123 188 245 218 220 233 205 205 217 272 269 201 205 215 226 233 223 234 268 260 238 242 231 232 238 237 238 240 245 246 244 242 237 235 232 230 224 217 218 217 210 206 213 229 246 258 271 287 301 310 307 314 322 324 330 329 327 331 332 334 335 336 335 335 336 337 337 335 335 334 334 335 333 332 331 332 331 332 333 331 330 328 325 323 323 324 326 330 333 335 335 332 331 329 326 324
164 150 200 237 199 223 242 218 218 233 260 261 207 190 229 237 235 233 222 274 272 243 246 242 244 252 247 239 240 243 243 241 240 237 236 235 232 228 226 230 233 232 229 231 238 250 269 284 293 306 309 308 314 320 323 324 321 323 329 330 329 332 333 332 333 334 334 333 332 333 332 332 332 329 328 327 327 326 324 325 324 323 322 320 318 316 317 318 320 323 326 329 329 328 327 325 324
170 197 224 209 164 194 260 215 209 225 238 240 201 175 233 238 232 234 216 216 250 249 258 260 259 265 254 244 244 242 242 241 238 237 235 233 232 231 232 234 237 240 241 245 254 271 283 285 294 303 302 306 313 318 319 316 318 324 329 328 326 330 331 330 331 332 332 330 330 330 329 330 329 327 326 325 325 322 320 320 318 316 316 316 315 312 312 311 313 315 317 321 323 324 324 323 322
215 264 239 196 183 202 271 223 217 227 221 215 200 216 234 225 247 244 226 232 250 260 269 277 274 258 238 242 245 243 242 240 241 243 239 233 232 234 237 240 244 248 254 262 272 281 282 284 296 300 299 305 311 314 312 312 318 323 326 325 325 329 329 329 331 331 329 327 327 327 327 327 326 325 324 324 323 320 318 317 314 313 312 311 311 309 307 307 307 308 309 312 314 317 319 320 319
183 272 237 200 214 234 255 235 226 224 222 228 217 232 239 231 260 264 248 253 262 268 267 267 266 252 238 243 247 248 249 246 247 250 246 241 239 239 241 246 253 257 261 268 276 279 282 291 297 299 303 308 310 309 306 310 317 319 322 323 325 328 326 328 330 328 325 324 324 324 324 324 323 323 322 322 321 319 318 316 313 311 309 308 307 307 305 302 303 303 303 304 306 308 311 314 315
176 235 225 194 226 241 243 232 229 233 237 245 236 245 252 254 273 276 271 275 280 274 264 258 255 252 250 250 251 251 250 248 246 244 243 242 241 239 239 245 253 256 261 275 287 282 287 295 293 296 302 305 304 302 302 309 315 316 319 321 323 325 324 326 326 322 321 320 320 321 320 320 320 319 319 320 319 317 316 315 313 311 308 307 305 304 303 300 299 299 299 299 299 300 304 307 309
211 206 205 192 236 244 235 229 231 241 245 244 249 263 265 280 306 278 277 291 308 288 256 246 245 246 249 250 250 250 251 252 246 240 237 238 240 242 240 242 248 252 268 291 283 280 284 284 282 288 292 292 290 291 296 301 306 309 313 316 317 318 319 319 318 316 315 314 315 316 315 315 315 315 316 317 314 313 313 313 312 311 310 309 305 303 302 300 298 297 296 296 295 294 297 300 302
218 176 188 191 267 261 234 235 237 238 249 244 241 270 275 287 347 268 269 298 341 332 265 233 233 237 243 245 245 245 250 253 251 244 238 237 239 243 242 239 243 245 262 275 275 274 273 272 272 273 271 270 273 278 283 287 291 296 300 304 306 308 310 310 309 309 309 309 310 309 309 310 310 311 312 312 310 309 310 309 310 310 311 310 307 304 302 300 298 296 296 294 293 292 291 293 295
122 121 223 266 311 275 231 230 235 222 256 253 229 273 281 278 179 254 265 276 297 310 300 246 226 226 234 237 237 234 241 245 247 246 241 239 236 237 234 226 225 225 245 260 268 269 268 268 265 262 263 266 269 271 272 274 277 281 285 288 292 294 296 298 299 300 301 302 303 301 303 304 305 306 306 306 305 305 305 306 307 308 310 311 307 304 303 301 298 296 296 293 291 291 289 289 290
73 71 291 296 345 312 237 224 218 197 222 287 241 299 293 238 219 248 265 273 279 266 256 256 226 222 225 224 223 220 226 231 236 240 235 228 220 208 200 210 221 237 249 255 260 263 265 265 265 267 271 275 278 280 280 280 281 282 284 284 285 286 286 288 289 292 294 295 296 296 297 298 299 300 300 301 301 301 302 302 304 306 309 310 306 305 304 302 300 297 296 293 290 290 288 287 287
358 43 29 318 355 332 275 190 176 172 195 308 75 294 289 260 236 241 269 275 278 257 240 242 224 219 217 213 209 200 199 210 220 210 188 179 182 188 201 227 233 236 239 236 245 253 257 263 271 278 282 287 290 294 296 298 299 297 297 295 293 291 288 286 285 286 288 289 289 290 292 294 295 296 297 298 298 299 299 300 301 304 308 307 305 305 304 302 302 300 298 295 291 290 288 287 286
330 331 20 7 342 288 307 56 153 149 205 164 111 245 271 274 267 277 281 265 263 257 249 238 220 213 208 196 181 173 174 184 162 132 146 158 171 187 193 197 195 199 198 200 221 237 250 267 282 290 297 305 310 315 319 318 317 314 311 308 305 301 298 295 294 292 291 291 291 293 294 295 296 296 296 296 296 297 297 297 299 301 304 304 303 304 303 303 304 303 302 300 296 293 290 288 287
27 324 309 341 190 267 313 335 161 153 169 153 127 233 270 277 291 310 295 250 250 257 264 244 218 205 190 169 156 160 162 157 134 130 139 147 154 158 158 154 154 161 166 172 181 190 194 90 31 359 358 349 348 346 342 338 333 330 326 322 317 313 310 307 306 303 302 301 301 302 303 303 303 302 302 301 301 301 301 301 300 299 300 300 300 301 301 302 304 304 303 304 302 297 295 292 290
1 85 254 277 198 277 318 328 192 161 127 170 178 227 275 279 287 38 49 347 291 256 267 255 218 201 178 156 147 145 141 133 124 128 133 135 138 139 142 141 142 145 143 140 128 113 95 72 47 24 17 8 3 356 351 348 343 341 336 332 326 321 318 315 314 311 310 309 309 310 311 312 312 312 314 313 312 311 309 307 306 304 301 298 297 297 298 300 304 304 303 305 306 303 299 296 294
322 15 245 251 215 250 298 311 312 93 129 251 237 223 257 267 260 277 333 328 302 255 259 258 222 197 170 153 145 137 131 124 121 125 129 130 131 132 136 138 140 140 133 124 104 80 58 37 18 10 8 4 360 354 349 345 342 341 339 336 332 327 324 323 323 321 318 318 319 320 319 318 316 318 322 322 320 318 314 312 310 310 307 303 299 296 295 297 300 303 302 303 307 306 303 301 299
259 268 261 285 275 245 256 280 287 111 136 245 241 251 255 266 274 288 309 315 296 265 261 259 223 185 162 152 142 135 130 123 122 126 129 131 133 134 138 142 139 126 109 86 62 42 27 17 8 2 0 360 357 353 349 346 344 342 341 341 339 335 331 329 330 328 325 323 323 324 324 322 319 318 322 323 323 322 320 318 316 315 314 312 307 302 298 296 296 298 300 301 303 305 305 304 303
210 233 206 251 270 262 244 257 263 189 173 242 236 251 260 275 289 308 319 318 294 265 253 220 171 150 144 138 128 127 124 121 123 127 132 135 137 136 135 130 116 100 80 57 44 30 21 14 6 1 0 0 359 355 352 351 349 347 346 345 343 342 340 336 333 332 330 327 325 324 324 324 323 321 323 325 326 325 324 323 321 319 319 318 315 311 306 301 297 294 297 300 300 302 303 304 306
123 162 186 250 250 276 265 264 297 216 177 255 242 252 269 283 299 318 328 332 313 253 168 131 130 126 125 123 119 119 117 118 125 129 132 135 131 127 120 110 101 87 68 47 33 26 21 15 6 5 7 6 4 0 358 358 355 351 348 347 344 341 340 337 333 332 332 331 329 327 325 325 325 325 326 327 328 327 326 325 324 323 322 322 319 317 313 309 304 299 296 297 299 300 300 302 307
55 164 239 288 246 263 266 244 309 333 160 270 320 316 282 294 321 333 343 352 7 89 123 117 114 114 115 117 115 115 116 121 128 128 128 129 124 119 112 102 90 70 56 39 32 32 26 12 4 4 5 5 3 358 355 355 351 346 342 340 338 335 334 333 329 328 328 327 326 326 325 324 324 324 325 326 326 325 325 324 324 323 323 323 322 320 319 316 313 308 301 296 296 297 297 299 305
58 120 201 297 264 275 293 314 325 357 170 275 354 342 296 315 335 352 5 14 45 81 111 112 109 109 108 112 114 116 120 124 127 126 125 124 119 113 103 89 73 58 50 43 41 38 15 358 355 355 355 353 349 344 342 341 336 333 330 328 327 323 322 322 319 317 316 313 311 314 316 318 319 320 321 321 321 322 322 321 322 322 322 322 321 321 321 320 319 316 310 302 299 297 296 297 300
204 201 230 271 277 302 283 314 326 302 228 264 335 322 299 331 346 9 21 44 69 84 98 99 102 104 104 110 114 118 122 124 124 123 121 119 113 103 89 75 64 54 48 43 41 24 354 353 355 352 351 347 343 339 336 332 327 324 321 318 315 310 308 307 304 302 301 301 300 300 301 303 306 308 311 314 314 316 316 317 318 318 318 318 318 318 318 319 320 318 316 311 304 298 297 297 296
281 210 208 242 263 238 230 287 317 306 311 301 358 330 303 6 29 12 18 53 68 79 90 89 93 99 102 104 106 114 123 126 124 119 115 111 103 90 79 69 60 51 47 42 34 14 355 357 355 348 345 341 337 333 329 325 321 317 315 313 310 306 304 302 301 301 301 302 302 300 297 297 298 297 299 301 303 306 309 311 313 313 314 314 314 313 314 315 316 317 316 314 308 303 300 298 294
308 239 217 217 225 242 260 329 347 356 343 340 39 5 294 348 59 23 351 49 59 65 79 82 89 96 98 97 98 110 121 125 120 113 107 99 90 85 78 70 60 51 49 43 28 12 356 351 347 341 338 335 331 328 325 321 318 316 315 315 315 313 310 307 306 305 304 304 303 300 296 293 294 294 293 294 296 298 300 304 307 308 309 310 309 309 309 310 311 312 312 310 308 307 304 298 295
311 261 206 172 145 312 318 351 5 347 278 272 79 114 261 315 52 32 358 68 63 56 69 77 88 92 92 93 97 109 121 123 115 105 98 91 86 82 76 69 57 46 45 33 8 358 349 344 342 337 335 332 328 325 323 321 318 315 313 313 313 312 309 306 303 302 301 302 301 299 295 292 292 292 291 292 293 293 294 297 300 303 305 306 306 305 304 305 306 306 306 306 305 305 302 298 298
260 242 133 119 83 295 278 160 211 239 274 308 28 147 217 290 335 288 104 92 74 62 63 70 85 89 89 93 99 111 120 121 112 102 95 91 88 84 77 69 53 39 28 4 352 350 344 341 339 335 333 329 326 324 323 322 320 318 316 314 312 309 306 303 301 301 301 301 301 300 297 294 293 293 292 291 290 289 290 292 293 295 297 299 300 300 300 301 301 300 300 300 300 299 298 298 300
261 224 142 290 281 255 201 159 209 284 10 316 303 127 187 267 255 234 152 106 106 113 97 78 87 89 89 94 104 113 115 114 109 103 97 95 95 89 79 64 46 25 8 356 349 344 338 336 335 333 331 328 327 327 326 325 322 321 319 315 312 309 306 304 305 306 305 304 302 300 298 296 295 296 296 295 292 289 289 290 290 290 291 292 293 293 294 295 296 296 295 295 295 294 293 294 295
276 147 116 22 56 69 104 126 147 42 34 266 275 160 175 269 227 185 171 133 158 161 132 106 92 89 89 96 107 113 111 108 106 101 97 97 96 88 71 47 26 6 358 348 338 335 333 332 331 331 331 330 329 330 328 326 322 319 317 315 314 311 309 308 308 309 309 307 304 301 300 300 300 301 301 301 299 296 293 291 290 289 288 289 289 289 290 291 291 292 291 291 291 288 287 289 291
326 78 1 353 30 38 45 72 96 65 303 253 262 242 147 291 236 179 191 198 177 156 137 125 95 87 90 98 106 110 108 105 102 99 97 95 91 78 45 9 1 351 340 331 329 330 331 330 329 329 329 328 329 329 328 324 320 317 316 316 315 314 314 313 312 312 311 308 306 306 306 306 306 305 304 303 302 300 297 294 291 290 289 288 288 288 288 288 289 289 288 287 287 285 283 284 287
51 60 11 348 341 11 28 356 45 93 267 259 256 227 152 237 251 214 262 240 158 144 144 137 104 91 93 98 103 105 103 101 98 96 92 84 63 22 352 342 341 334 327 327 328 329 329 330 329 329 329 329 328 328 326 323 319 317 316 315 314 315 317 318 318 316 312 310 310 311 311 310 309 308 307 306 304 302 298 296 293 291 291 290 290 290 289 289 287 286 285 283 283 283 281 281 283
39 31 37 25 341 357 358 318 335 194 244 246 207 69 190 226 236 311 330 15 105 118 124 123 109 97 95 97 99 98 95 91 86 79 64 34 3 348 339 336 335 332 331 332 331 331 331 331 331 331 331 330 328 326 324 321 319 319 317 315 314 316 319 322 321 317 315 315 314 313 313 313 313 314 314 311 308 304 299 295 294 293 292 291 290 289 289 289 288 285 283 281 281 281 280 279 281
2 356 86 69 12 358 308 284 299 283 269 260 328 5 290 254 40 354 349 40 86 99 103 103 94 86 88 92 96 94 85 77 69 54 40 19 5 354 345 342 339 337 336 334 334 334 333 333 333 332 331 330 327 326 325 323 321 320 318 317 318 320 321 323 321 319 318 317 316 315 315 314 314 315 313 308 304 300 296 293 293 292 292 292 291 290 289 288 288 285 281 279 279 279 280 278 277
316 190 130 115 153 196 273 248 248 287 289 292 304 297 247 243 6 340 27 80 92 99 97 89 80 74 76 82 90 91 78 65 49 28 23 7 357 350 344 342 339 337 336 335 335 336 336 336 334 332 331 332 331 331 330 328 325 322 320 321 323 324 324 325 324 322 320 319 318 316 313 311 308 306 303 300 298 297 296 295 295 294 294 295 295 294 293 289 287 286 282 280 277 277 280 277 275
275 163 94 65 182 167 238 213 203 270 316 312 280 201 233 89 352 355 70 88 92 93 86 76 67 58 60 64 69 81 71 42 12 356 355 350 345 341 338 336 336 336 336 337 339 340 340 339 335 332 333 333 333 334 332 329 324 320 321 325 327 327 328 328 326 324 322 321 318 311 307 304 303 303 302 301 300 300 300 299 299 299 299 299 298 297 296 292 288 284 281 281 278 277 279 277 274
254 72 286 246 183 133 149 277 327 40 348 294 246 147 26 86 96 6 68 81 78 78 75 67 54 42 41 42 47 67 54 359 342 336 337 338 338 338 338 339 340 340 341 342 342 342 342 340 335 331 331 334 335 335 333 329 322 321 324 328 329 329 329 328 326 325 323 319 311 306 305 305 307 308 307 306 306 305 304 304 304 303 303 302 301 301 299 296 292 285 281 280 280 280 279 276 273
66 296 249 239 117 90 101 294 348 15 281 276 288 177 201 169 162 201 109 97 83 70 70 60 45 34 26 23 32 62 348 331 323 325 331 337 340 341 343 343 342 342 341 339 339 339 340 337 332 330 332 335 338 338 335 328 322 325 328 329 330 329 328 327 326 324 319 312 307 307 309 311 312 312 311 311 310 308 308 308 307 306 306 305 304 303 302 299 296 291 285 281 279 280 280 277 275
106 226 243 90 78 332 13 5 327 338 293 288 311 293 218 199 196 188 168 142 131 103 73 58 40 27 14 9 25 194 270 306 310 315 329 339 344 343 342 341 338 337 335 334 335 337 339 337 331 330 332 335 337 338 334 325 323 327 328 329 330 330 329 328 325 320 313 308 308 310 312 314 315 315 314 314 312 311 311 310 309 308 307 306 306 305 303 301 298 294 290 285 281 280 278 276 275
23 21 343 40 161 193 245 171 190 254 290 291 316 323 267 235 215 176 170 162 148 126 79 60 40 21 5 0 3 240 287 304 306 312 331 342 342 338 336 335 333 331 331 333 336 338 339 336 331 330 332 334 336 337 330 323 326 330 331 332 333 332 332 329 323 316 310 308 309 310 312 315 316 316 316 315 313 313 312 311 310 309 308 308 307 306 304 302 300 296 293 289 284 281 277 274 271
348 12 355 334 301 281 347 305 138 132 260 258 315 306 267 272 308 149 146 138 132 116 90 71 42 16 4 355 325 300 302 302 302 314 333 338 333 332 332 331 330 329 330 334 337 339 339 334 331 331 333 335 337 334 328 327 331 333 334 335 335 335 334 328 321 315 311 309 309 310 313 315 316 317 316 315 314 314 313 312 311 310 310 309 308 307 306 304 301 297 294 290 287 283 280 276 273
167 148 212 214 314 25 351 305 320 67 189 187 236 288 269 289 32 119 117 107 114 110 106 81 35 16 3 347 320 313 306 292 296 315 327 329 329 330 329 328 328 329 332 336 338 339 338 333 331 333 335 338 337 331 329 331 333 334 335 336 335 335 333 327 321 316 312 311 311 313 315 316 316 316 316 316 315 314 314 313 312 311 311 310 309 307 306 304 301 298 296 293 289 286 283 279 276